This is the latest recevied weather packets stored in our database for station/object N5LSN. If no packets are shown the sender has not sent any weather packets the latest 10 day(s).
| Time | Temp. | Humidity | Pressure | Rain* | Wind** | Luminosity | Snow |
|---|---|---|---|---|---|---|---|
| 1777555237 | 14.44° C | 73% | 1017.5 hPa | 0 mm | - | 291 W/m² | - |
| 1777554934 | 13.89° C | 74% | 1017.5 hPa | 0 mm | - | 270 W/m² | - |
| 1777554631 | 13.89° C | 76% | 1017.7 hPa | 0 mm | - | 206 W/m² | - |
| 1777554328 | 13.33° C | 78% | 1017.8 hPa | 0 mm | - | 192 W/m² | - |
| 1777554025 | 12.78° C | 79% | 1017.6 hPa | 0 mm | - | 96 W/m² | - |
| 1777553721 | 13.33° C | 79% | 1017.4 hPa | 0 mm | - | 94 W/m² | - |
| 1777553419 | 12.78° C | 79% | 1017.4 hPa | 0 mm | - | 145 W/m² | - |
| 1777553115 | 12.78° C | 79% | 1017.5 hPa | 0 mm | - | 102 W/m² | - |
| 1777552815 | 12.78° C | 80% | 1017.7 hPa | 0 mm | - | 86 W/m² | - |
| 1777552510 | 12.78° C | 79% | 1017.6 hPa | 0 mm | - | 94 W/m² | - |
| 1777552207 | 12.78° C | 80% | 1017.8 hPa | 0 mm | - | 86 W/m² | - |
| 1777551904 | 12.78° C | 80% | 1017.6 hPa | 0 mm | - | 67 W/m² | - |
| 1777551601 | 12.22° C | 81% | 1017.4 hPa | 0 mm | - | 57 W/m² | - |
| 1777551299 | 12.22° C | 81% | 1017.6 hPa | 0 mm | - | 50 W/m² | - |
| 1777550995 | 12.22° C | 81% | 1017.4 hPa | 0 mm | - | 35 W/m² | - |
| 1777550692 | 12.22° C | 81% | 1017.2 hPa | 0 mm | - | 46 W/m² | - |
| 1777550388 | 12.22° C | 82% | 1017.3 hPa | 0 mm | - | 43 W/m² | - |
| 1777550084 | 12.22° C | 82% | 1017.4 hPa | 0 mm | - | 33 W/m² | - |
| 1777549781 | 12.22° C | 82% | 1017.2 hPa | 0 mm | - | 26 W/m² | - |
| 1777549477 | 12.22° C | 82% | 1017.2 hPa | 0 mm | - | 18 W/m² | - |
| 1777549173 | 12.22° C | 82% | 1017.3 hPa | 0 mm | - | 11 W/m² | - |
| 1777548870 | 12.22° C | 82% | 1017.2 hPa | 0 mm | - | 7 W/m² | - |
| 1777548567 | 12.22° C | 81% | 1017.5 hPa | 0 mm | - | 5 W/m² | - |
| 1777548263 | 12.22° C | 81% | 1017.1 hPa | 0 mm | - | 3 W/m² | - |
| 1777547960 | 12.22° C | 81% | 1017.2 hPa | 0 mm | - | 2 W/m² | - |
* Rain latest hour (hover to see other rain measurements)
** Current wind speed in m/s (hover to see current wind gust speed)